Regional Weather Roundup
Issued by NWS

Home | Current Version | Previous Version | Graphics & Text | Print | Product List | Glossary On
Versions: 1 2 3 4 5 6 7 8 9 10 11 12 13 14 15 16 17 18 19 20 21 22 23 24 25 26 27 28 29 30 31 32 33 34 35 36 37 38 39 40 41 42 43 44 45 46 47 48 49 50
378
ASUS43 KLMK 241502
RWRKY
KENTUCKY REGIONAL WEATHER ROUNDUP
NATIONAL WEATHER SERVICE LOUISVILLE KY
1100 AM EDT FRI MAR 24 2017

NOTE "FAIR" INDICATES FEW OR NO CLOUDS BELOW 12,000 FEET
WITH NO SIGNIFICANT WEATHER AND/OR OBSTRUCTIONS TO VISIBILITY.

KYZ001>023-026-027-061>063-070>075-241600-
WESTERN AND SOUTH CENTRAL KENTUCKY

CITY           SKY/WX    TMP DP  RH WIND       PRES   REMARKS
PADUCAH        PTSUNNY   67  56  67 S9G25     30.16R
HENDERSON      MOSUNNY   70  55  60 S20       30.17R
OWENSBORO      SUNNY     68  55  63 S15G23    30.20R
HOPKINSVILLE   SUNNY     69  55  60 S15G23    30.21R
BOWLING GREEN  SUNNY     69  52  54 SW17G28   30.26R
GLASGOW        NOT AVBL
$$

KYZ024-025-028>034-038-045-046-053-241600-
NORTH CENTRAL KENTUCKY

CITY           SKY/WX    TMP DP  RH WIND       PRES   REMARKS
LOUISVILLE/SDF MOSUNNY   68  47  46 S16       30.22R
LOUISVILLE/LOU SUNNY     66  48  52 S10       30.23S
FORT KNOX      SUNNY     67  51  57 S21G28    30.21R
$$

KYZ035>037-039>044-047>052-055>060-089>105-241600-
NORTHEAST KENTUCKY

CITY           SKY/WX    TMP DP  RH WIND       PRES   REMARKS
LEXINGTON      SUNNY     66  48  52 SW21G31   30.25S
COVINGTON      PTSUNNY   63  48  58 SW20G29   30.21R
FRANKFORT      SUNNY     67  48  50 SW17G28   30.23R
$$

KYZ054-064>069-076>088-106>120-241600-
SOUTHEAST KENTUCKY

CITY           SKY/WX    TMP DP  RH WIND       PRES   REMARKS
JACKSON        SUNNY     66  44  45 SW9       30.30R
LONDON         MOSUNNY   64  43  46 S10       30.31R
SOMERSET       NOT AVBL
MIDDLESBORO    SUNNY     61  41  49 S7G17     30.37S
MONTICELLO     CLOUDY    65  50  58 S10G21    30.31S
$$





USA.gov is the U.S. government's official web portal to all federal, state and local government web resources and services.